User: anonymous   Login
Location: Vanderbilt Beach
(26.2700°N, 81.7900°W)
Time: 23:44:54
(UTC-05:00)
Language:

AIST 2D - Orbit

View from above orbital plane
View from above orbital plane
View from above satellite
View from above satellite

Ground track
Ground track

The orbit data is extracted from the following two-line orbital elements,

1 41465U 16026B   20330.71884488  .00003818  00000-0  11362-3 0  9997
2 41465  97.1290 215.5686 0012512  35.9642  49.3027 15.35235799256167
Epoch (UTC): 25 November 2020 17:15:08
Eccentricity: 0.0012512
inclination: 97.1290°
perigee height: 451 km
apogee height: 469 km
right ascension of ascending node: 215.5686°
argument of perigee: 35.9642°
revolutions per day: 15.35235799
mean anomaly at epoch: 49.3027°
orbit number at epoch: 25616

The dashed part of the orbit path shows where the satellite is in the earth's shadow,  

DLR